N420HE EGMC-LFBD

Flight info

Callsign N420HE
Flight time N/A
Altitude 32000
Route WIZAD DCT LYD UM189 HAWKE UL612 XAMAB DCT ETRAT UN859 SOPIL DCT VELIN
Aircraft HDJT/L-SABDGRWY/H

Departure

Time N/A
Airport London Southend Airport (EGMC)

Arrival

Time 2026-05-07 18:19
Airport Bordeaux–Mérignac Airport (LFBD)
Time Latitude Longitude Altitude Speed Heading
2026-05-07 17:06 50.00058 0.22487 32033 ft 398 kts 188°
2026-05-07 17:06 49.97283 0.21924 32037 ft 404 kts 188°
2026-05-07 17:06 49.91664 0.20850 32046 ft 406 kts 188°
2026-05-07 17:07 49.86052 0.19751 32041 ft 405 kts 188°
2026-05-07 17:07 49.80483 0.18678 32029 ft 405 kts 188°
2026-05-07 17:08 49.74886 0.17595 32023 ft 405 kts 188°
2026-05-07 17:08 49.70233 0.16730 32019 ft 406 kts 185°
2026-05-07 17:09 49.64614 0.17638 32020 ft 408 kts 165°
2026-05-07 17:09 49.58273 0.20503 32023 ft 408 kts 167°
2026-05-07 17:10 49.53637 0.22169 32021 ft 408 kts 166°
2026-05-07 17:10 49.48194 0.24492 32019 ft 408 kts 166°
2026-05-07 17:11 49.42664 0.26617 32012 ft 408 kts 166°
2026-05-07 17:11 49.37164 0.28867 32015 ft 409 kts 166°
2026-05-07 17:12 49.31648 0.31033 32013 ft 409 kts 167°
2026-05-07 17:12 49.26162 0.33334 32017 ft 409 kts 165°
2026-05-07 17:13 49.20666 0.35678 32010 ft 409 kts 166°
2026-05-07 17:13 49.15174 0.37961 32006 ft 409 kts 165°
2026-05-07 17:14 49.09717 0.40271 32004 ft 409 kts 166°
2026-05-07 17:14 49.04223 0.42554 32003 ft 409 kts 165°
2026-05-07 17:15 48.98720 0.44865 32006 ft 409 kts 166°
2026-05-07 17:15 48.93223 0.47148 32005 ft 409 kts 166°
2026-05-07 17:16 48.87727 0.49437 32001 ft 409 kts 166°
2026-05-07 17:16 48.82258 0.51703 32002 ft 409 kts 166°
2026-05-07 17:17 48.76754 0.53969 32006 ft 408 kts 166°
2026-05-07 17:17 48.71240 0.56077 32006 ft 409 kts 167°
2026-05-07 17:18 48.65729 0.58271 32009 ft 409 kts 166°
2026-05-07 17:18 48.60257 0.60388 32007 ft 408 kts 167°
2026-05-07 17:19 48.54744 0.62550 32010 ft 408 kts 166°
2026-05-07 17:19 48.49240 0.64708 32011 ft 408 kts 166°
2026-05-07 17:20 48.43757 0.66995 32008 ft 408 kts 166°
2026-05-07 17:20 48.38298 0.69176 32006 ft 408 kts 166°
2026-05-07 17:21 48.32814 0.71420 32008 ft 408 kts 166°
2026-05-07 17:21 48.27329 0.73621 32005 ft 408 kts 166°
2026-05-07 17:22 48.21833 0.75831 32003 ft 408 kts 166°
2026-05-07 17:22 48.16373 0.77954 32002 ft 407 kts 166°
2026-05-07 17:23 48.10886 0.80126 32003 ft 407 kts 166°
2026-05-07 17:23 48.05383 0.82273 32002 ft 407 kts 166°
2026-05-07 17:24 47.99925 0.84413 31996 ft 407 kts 166°
2026-05-07 17:24 47.94442 0.86549 31994 ft 407 kts 166°
2026-05-07 17:25 47.88947 0.88695 31994 ft 407 kts 167°
2026-05-07 17:25 47.83466 0.90819 31994 ft 407 kts 167°
2026-05-07 17:26 47.77975 0.92951 31988 ft 407 kts 167°
2026-05-07 17:26 47.72523 0.95059 31986 ft 407 kts 167°
2026-05-07 17:27 47.67030 0.97180 31986 ft 407 kts 167°
2026-05-07 17:27 47.61532 0.99296 31982 ft 407 kts 167°
2026-05-07 17:28 47.56076 1.01395 31986 ft 407 kts 167°
2026-05-07 17:28 47.50587 1.03500 31986 ft 407 kts 167°
2026-05-07 17:29 47.45094 1.05603 31989 ft 407 kts 167°
2026-05-07 17:29 47.39509 1.06470 31983 ft 403 kts 184°
2026-05-07 17:30 47.33900 1.06164 31985 ft 403 kts 182°
2026-05-07 17:30 47.28321 1.06145 31982 ft 403 kts 183°
2026-05-07 17:31 47.22715 1.05941 31987 ft 402 kts 182°
2026-05-07 17:31 47.17117 1.05857 31980 ft 402 kts 183°
2026-05-07 17:32 47.11525 1.05697 31980 ft 402 kts 182°
2026-05-07 17:32 47.05954 1.05583 31977 ft 401 kts 183°
2026-05-07 17:33 47.00443 1.04618 31977 ft 397 kts 198°
2026-05-07 17:33 46.95227 1.02083 31951 ft 383 kts 199°
2026-05-07 17:34 46.90164 0.99872 31975 ft 379 kts 200°
2026-05-07 17:34 46.85122 0.97522 31973 ft 381 kts 199°
2026-05-07 17:35 46.80081 0.95273 31972 ft 381 kts 199°
2026-05-07 17:35 46.75013 0.92959 31966 ft 380 kts 199°
2026-05-07 17:36 46.69942 0.90680 31972 ft 380 kts 199°
2026-05-07 17:36 46.64923 0.88409 31966 ft 380 kts 199°
2026-05-07 17:37 46.59862 0.86138 31967 ft 379 kts 199°
2026-05-07 17:37 46.54814 0.83864 31961 ft 379 kts 199°
2026-05-07 17:38 46.49795 0.81618 31960 ft 379 kts 199°
2026-05-07 17:38 46.44759 0.79362 31953 ft 379 kts 199°
2026-05-07 17:39 46.39721 0.77119 31955 ft 379 kts 199°
2026-05-07 17:39 46.34683 0.74868 31958 ft 378 kts 199°
2026-05-07 17:40 46.29640 0.72627 31951 ft 379 kts 199°
2026-05-07 17:40 46.24603 0.70392 31953 ft 378 kts 199°
2026-05-07 17:41 46.19568 0.68158 31943 ft 379 kts 199°
2026-05-07 17:41 46.14548 0.65939 31947 ft 379 kts 199°
2026-05-07 17:42 46.09477 0.63700 31949 ft 378 kts 199°
2026-05-07 17:42 46.04438 0.61483 31947 ft 378 kts 199°
2026-05-07 17:43 45.99434 0.59279 31942 ft 378 kts 199°
2026-05-07 17:43 45.94390 0.57070 31874 ft 379 kts 199°
2026-05-07 17:44 45.91844 0.55949 31407 ft 386 kts 199°
2026-05-07 17:44 45.89250 0.54813 30886 ft 389 kts 199°
2026-05-07 17:44 45.86668 0.53690 30379 ft 385 kts 199°
2026-05-07 17:44 45.84114 0.52574 29859 ft 382 kts 199°
2026-05-07 17:45 45.81616 0.51478 29357 ft 377 kts 199°
2026-05-07 17:45 45.79117 0.50387 28870 ft 374 kts 199°
2026-05-07 17:45 45.76626 0.49308 28384 ft 372 kts 199°
2026-05-07 17:45 45.74151 0.48228 27900 ft 370 kts 199°
2026-05-07 17:46 45.71689 0.47155 27415 ft 368 kts 199°
2026-05-07 17:46 45.69245 0.46094 26945 ft 365 kts 198°
2026-05-07 17:46 45.66816 0.45042 26462 ft 362 kts 199°
2026-05-07 17:46 45.64436 0.44011 25995 ft 360 kts 199°
2026-05-07 17:47 45.62045 0.42970 25527 ft 358 kts 198°
2026-05-07 17:47 45.59665 0.41938 25057 ft 356 kts 198°
2026-05-07 17:47 45.57294 0.40919 24594 ft 354 kts 198°
2026-05-07 17:47 45.54932 0.39901 24127 ft 352 kts 198°
2026-05-07 17:48 45.52594 0.38883 23671 ft 350 kts 198°
2026-05-07 17:48 45.50294 0.37891 23179 ft 348 kts 198°
2026-05-07 17:48 45.47981 0.36897 22715 ft 345 kts 198°
2026-05-07 17:48 45.45684 0.35907 22264 ft 344 kts 198°
2026-05-07 17:49 45.43403 0.34925 21809 ft 342 kts 198°
2026-05-07 17:49 45.41133 0.33949 21360 ft 340 kts 198°
2026-05-07 17:49 45.38871 0.32975 20915 ft 338 kts 198°
2026-05-07 17:49 45.36622 0.32012 20474 ft 336 kts 198°
2026-05-07 17:50 45.34388 0.31058 20032 ft 334 kts 198°
2026-05-07 17:50 45.32197 0.30116 19600 ft 333 kts 198°
2026-05-07 17:50 45.29983 0.29164 19162 ft 331 kts 198°
2026-05-07 17:50 45.27786 0.28224 18731 ft 329 kts 198°
2026-05-07 17:51 45.25596 0.27292 18304 ft 328 kts 198°
2026-05-07 17:51 45.23416 0.26360 17843 ft 325 kts 198°
2026-05-07 17:51 45.21256 0.25436 17412 ft 323 kts 198°
2026-05-07 17:51 45.19111 0.24521 16993 ft 322 kts 198°
2026-05-07 17:52 45.16974 0.23611 16569 ft 320 kts 198°
2026-05-07 17:52 45.14847 0.22706 16154 ft 318 kts 198°
2026-05-07 17:52 45.12731 0.21804 15739 ft 316 kts 198°
2026-05-07 17:52 45.11337 0.21211 15465 ft 315 kts 198°
2026-05-07 17:53 45.08559 0.20033 14920 ft 312 kts 198°
2026-05-07 17:53 45.06485 0.19153 14510 ft 311 kts 198°
2026-05-07 17:53 45.04419 0.18277 14109 ft 309 kts 198°
2026-05-07 17:53 45.02375 0.17400 13939 ft 303 kts 199°
2026-05-07 17:54 45.01076 0.16668 13938 ft 304 kts 208°
2026-05-07 17:54 44.99304 0.15031 13700 ft 295 kts 219°
2026-05-07 17:54 44.97900 0.13024 13152 ft 283 kts 231°
2026-05-07 17:54 44.96825 0.10734 12616 ft 279 kts 242°
2026-05-07 17:55 44.96091 0.08201 12100 ft 277 kts 251°
2026-05-07 17:55 44.95457 0.05676 11600 ft 275 kts 249°
2026-05-07 17:55 44.94774 0.03161 11193 ft 273 kts 249°
2026-05-07 17:55 44.94111 0.00655 10834 ft 272 kts 250°
2026-05-07 17:56 44.93468 -0.01850 10470 ft 272 kts 250°
2026-05-07 17:56 44.92815 -0.04345 10156 ft 271 kts 250°
2026-05-07 17:56 44.92160 -0.06833 9814 ft 270 kts 250°
2026-05-07 17:56 44.91512 -0.09316 9442 ft 269 kts 250°
2026-05-07 17:57 44.90862 -0.11787 9089 ft 268 kts 250°
2026-05-07 17:57 44.90212 -0.14249 8735 ft 267 kts 250°
2026-05-07 17:57 44.89577 -0.16673 8388 ft 266 kts 250°
2026-05-07 17:57 44.89093 -0.19177 8005 ft 264 kts 265°
2026-05-07 17:58 44.89305 -0.21648 7560 ft 247 kts 284°
2026-05-07 17:58 44.89771 -0.23944 7116 ft 241 kts 286°
2026-05-07 17:58 44.90249 -0.26199 6678 ft 239 kts 286°
2026-05-07 17:58 44.90724 -0.28447 6241 ft 239 kts 286°
2026-05-07 17:59 44.91196 -0.30698 5784 ft 240 kts 286°
2026-05-07 17:59 44.91664 -0.32928 5367 ft 231 kts 286°
2026-05-07 17:59 44.92118 -0.35112 4965 ft 232 kts 286°
2026-05-07 17:59 44.92572 -0.37299 4584 ft 231 kts 287°
2026-05-07 18:00 44.93019 -0.39466 4217 ft 230 kts 286°
2026-05-07 18:00 44.93461 -0.41623 3930 ft 229 kts 286°
2026-05-07 18:00 44.93903 -0.43780 3702 ft 229 kts 286°
2026-05-07 18:00 44.94343 -0.45932 3488 ft 228 kts 286°
2026-05-07 18:01 44.94780 -0.48044 3254 ft 218 kts 286°
2026-05-07 18:01 44.95196 -0.50091 3021 ft 217 kts 286°
2026-05-07 18:01 44.95600 -0.52117 3000 ft 214 kts 286°
2026-05-07 18:01 44.95777 -0.54186 3002 ft 208 kts 261°
2026-05-07 18:02 44.94109 -0.56595 2991 ft 168 kts 199°
2026-05-07 18:02 44.93109 -0.57402 2982 ft 164 kts 210°
2026-05-07 18:02 44.92157 -0.58272 3001 ft 163 kts 210°
2026-05-07 18:03 44.91299 -0.59313 2999 ft 165 kts 229°
2026-05-07 18:03 44.90550 -0.60509 2920 ft 161 kts 224°
2026-05-07 18:03 44.89768 -0.61657 2996 ft 163 kts 223°
2026-05-07 18:03 44.88863 -0.62574 3001 ft 159 kts 193°
2026-05-07 18:04 44.87778 -0.62802 3014 ft 158 kts 184°
2026-05-07 18:04 44.86686 -0.62986 3005 ft 157 kts 185°
2026-05-07 18:04 44.85602 -0.63172 3004 ft 156 kts 184°
2026-05-07 18:04 44.84519 -0.63360 3005 ft 158 kts 184°
2026-05-07 18:05 44.83435 -0.63548 3002 ft 156 kts 184°
2026-05-07 18:05 44.82347 -0.63738 2999 ft 156 kts 184°
2026-05-07 18:05 44.81267 -0.63934 3002 ft 158 kts 184°
2026-05-07 18:05 44.80187 -0.64133 3003 ft 155 kts 184°
2026-05-07 18:06 44.79118 -0.64328 3181 ft 149 kts 184°
2026-05-07 18:06 44.78080 -0.64429 3672 ft 153 kts 166°
2026-05-07 18:06 44.77262 -0.63595 4180 ft 150 kts 116°
2026-05-07 18:06 44.77162 -0.62138 4715 ft 155 kts 75°
2026-05-07 18:07 44.77599 -0.60685 5010 ft 173 kts 68°
2026-05-07 18:07 44.78066 -0.58994 5008 ft 196 kts 70°
2026-05-07 18:07 44.78571 -0.57113 5011 ft 220 kts 70°
2026-05-07 18:07 44.79232 -0.55108 5003 ft 230 kts 55°
2026-05-07 18:08 44.80491 -0.53702 5003 ft 236 kts 24°
2026-05-07 18:08 44.82063 -0.53011 5009 ft 237 kts 18°
2026-05-07 18:08 44.83591 -0.52134 5003 ft 236 kts 28°
2026-05-07 18:08 44.85057 -0.51045 4800 ft 238 kts 23°
2026-05-07 18:09 44.86683 -0.50658 4496 ft 238 kts
2026-05-07 18:09 44.88319 -0.50950 4189 ft 238 kts 345°
2026-05-07 18:09 44.89800 -0.51935 4008 ft 234 kts 327°
2026-05-07 18:09 44.91027 -0.53487 4011 ft 239 kts 310°
2026-05-07 18:10 44.91866 -0.55502 4006 ft 240 kts 292°
2026-05-07 18:10 44.92401 -0.59894 4011 ft 242 kts 277°
2026-05-07 18:10 44.92620 -0.62247 4010 ft 241 kts 277°
2026-05-07 18:11 44.92825 -0.64593 4004 ft 241 kts 276°
2026-05-07 18:11 44.93009 -0.66955 4000 ft 241 kts 276°
2026-05-07 18:11 44.93199 -0.69311 4000 ft 241 kts 276°
2026-05-07 18:11 44.93395 -0.71666 4007 ft 242 kts 276°
2026-05-07 18:12 44.93589 -0.74025 4009 ft 241 kts 276°
2026-05-07 18:12 44.93776 -0.76379 4000 ft 242 kts 276°
2026-05-07 18:12 44.93974 -0.78746 3998 ft 242 kts 276°
2026-05-07 18:12 44.94159 -0.81088 3855 ft 243 kts 276°
2026-05-07 18:13 44.94345 -0.83393 3621 ft 227 kts 276°
2026-05-07 18:13 44.94515 -0.85580 3390 ft 223 kts 273°
2026-05-07 18:13 44.94284 -0.87712 3148 ft 219 kts 249°
2026-05-07 18:13 44.93542 -0.89567 2910 ft 216 kts 228°
2026-05-07 18:14 44.92402 -0.90926 2677 ft 212 kts 207°
2026-05-07 18:14 44.91032 -0.91638 2454 ft 209 kts 187°
2026-05-07 18:14 44.89601 -0.91664 2220 ft 203 kts 168°
2026-05-07 18:14 44.88287 -0.91052 1999 ft 199 kts 149°
2026-05-07 18:15 44.87190 -0.89883 2002 ft 200 kts 131°
2026-05-07 18:15 44.86414 -0.88278 2013 ft 197 kts 114°
2026-05-07 18:15 44.85992 -0.86444 2005 ft 197 kts 105°
2026-05-07 18:15 44.85611 -0.84606 2017 ft 189 kts 106°
2026-05-07 18:16 44.85251 -0.82938 1814 ft 167 kts 105°
2026-05-07 18:16 44.84944 -0.81464 1563 ft 149 kts 105°
2026-05-07 18:16 44.84650 -0.80066 1349 ft 149 kts 106°
2026-05-07 18:16 44.84363 -0.78690 1131 ft 143 kts 104°
2026-05-07 18:17 44.84108 -0.77456 946 ft 120 kts 107°
2026-05-07 18:17 44.83881 -0.76394 743 ft 108 kts 105°
2026-05-07 18:17 44.83674 -0.75400 579 ft 106 kts 107°
2026-05-07 18:17 44.83463 -0.74395 424 ft 109 kts 108°
2026-05-07 18:18 44.83262 -0.73390 284 ft 103 kts 108°
2026-05-07 18:18 44.83051 -0.72399 183 ft 107 kts 108°
2026-05-07 18:18 44.82849 -0.71441 164 ft 91 kts 108°
2026-05-07 18:18 44.82697 -0.70746 164 ft 51 kts 106°
2026-05-07 18:19 44.82634 -0.70435 167 ft 24 kts 106°
2026-05-07 18:19 44.82590 -0.70223 167 ft 22 kts 106°
2026-05-07 18:19 44.82567 -0.70055 167 ft 14 kts 83°
2026-05-07 18:19 44.82626 -0.69970 166 ft 10 kts 18°
2026-05-07 18:20 44.82689 -0.69941 164 ft 6 kts 15°
2026-05-07 18:20 44.82712 -0.69933 164 ft 0 kts 12°
2026-05-07 18:20 44.82713 -0.69933 164 ft 0 kts 12°
2026-05-07 18:20 44.82737 -0.69962 164 ft 11 kts 288°
2026-05-07 18:21 44.82771 -0.70127 164 ft 23 kts 286°
2026-05-07 18:21 44.82812 -0.70334 164 ft 21 kts 285°
2026-05-07 18:21 44.82852 -0.70522 165 ft 21 kts 288°
2026-05-07 18:21 44.82898 -0.70742 165 ft 23 kts 286°
2026-05-07 18:22 44.82928 -0.70876 165 ft 11 kts 287°
2026-05-07 18:22 44.82953 -0.70934 164 ft 12 kts 343°
2026-05-07 18:22 44.83044 -0.70831 164 ft 14 kts 45°
2026-05-07 18:22 44.83119 -0.70723 163 ft 17 kts 47°
2026-05-07 18:23 44.83206 -0.70601 162 ft 19 kts 45°
2026-05-07 18:23 44.83300 -0.70465 160 ft 21 kts 46°
2026-05-07 18:23 44.83405 -0.70315 159 ft 22 kts 45°
2026-05-07 18:23 44.83507 -0.70172 158 ft 20 kts 46°
2026-05-07 18:24 44.83596 -0.70045 156 ft 15 kts 46°
2026-05-07 18:24 44.83620 -0.69960 156 ft 8 kts 106°
2026-05-07 18:24 44.83629 -0.69899 156 ft 6 kts 40°
2026-05-07 18:24 44.83653 -0.69862 156 ft 5 kts 47°
2026-05-07 18:25 44.83668 -0.69837 155 ft 2 kts 82°
2026-05-07 18:25 44.83650 -0.69820 155 ft 2 kts 223°
2026-05-07 18:25 44.83644 -0.69829 156 ft 0 kts 227°
2026-05-07 18:25 44.83640 -0.69834 156 ft 3 kts 225°